Voltar ao catálogo

WILDFIRE 8

AtivoCiênciaPO
NORAD 57768·PAYLOAD·🇺🇸 United States

Lançado Sep 2, 2023 de Vandenberg Space Force Base

Loading…

Próximas Passagens (próximas 24 horas)

TLE

AtualizadoSource: Space-Track

Época: Sep 14, 2026, 08:50 UTC

1 57768U 23133M   26257.36814000  .00000077  00000-0  57724-4 0  9992
2 57768  80.9919 281.2908 0006976 126.8818 233.2978 13.85454869153380

Acompanhe WILDFIRE 8 em tempo real com AllMySat

Download on the App Store